Tracking 17140 objects as of 1-July-2015
HD Live streaming from Space Station

AMC-5 (GE-5)

Track AMC-5 (GE-5) now!
AMC-5 (GE-5) is classified as:


NORAD ID: 25516
Int'l Code: 1998-063B
Perigee: 36,042.8 km
Apogee: 36,074.6 km
Inclination: 4.1 °
Period: 1,449.7 minutes
Semi major axis: 42429 km
RCS: 9.3322 m2 (large)
Launch date: October 28, 1998
Source: SOCIETE EUROPEENNE DES SATELLITES (SES)

Broadband internet, business television; 16 Ku-band; CONUS
Your satellite tracking list
Your tracking list is empty





NASA's NSSDC Master Catalog

Two Line Element Set (TLE):
1 25516U 98063B   15181.43137097 -.00000244  00000-0  00000+0 0  9995
2 25516 004.0611 065.0627 0003744 040.9249 278.5789 00.99333929 61061

Source of the keplerian elements: AFSPC

N2YO: 239